{"data":{"norad_id":64675,"intl_designator":"2025-139M","name":"STARLINK-34590","alt_names":[],"object_type":"PAYLOAD","status":"ACTIVE","operator":null,"country":"US","launch_date":"2025-06-28","launch_site_code":"AFETR","launch_vehicle":null,"mission":null,"orbit_class":"UNKNOWN","rcs_meters":null,"size_class":null,"mass_kg":null,"dimensions":null,"purposes":["comms"],"wikipedia_slug":null,"has_3d_model":false,"image_url":null,"decayed_at":null,"tle_current":{"epoch":"2026-05-25T03:21:15.214752Z","epoch_age_seconds":63045,"freshness":"FRESH","line1":"1 64675U 25139M   26145.13975943  .00013722  00000+0  47441-3 0  9994","line2":"2 64675  53.1575 132.3092 0001221  95.9520 264.1620 15.30209925 51982","mean_motion":15.30209925,"eccentricity":0.0001221,"inclination_deg":53.1575,"raan_deg":132.3092,"arg_perigee_deg":95.952,"mean_anomaly_deg":264.162,"bstar":0.00047441,"rev_number":5198,"period_min":94.104735335578,"perigee_km":474.34864464914,"apogee_km":476.02222598784,"semimajor_km":6853.3224353185,"source":"CELESTRAK","updated_at":"2026-05-25T13:38:20.504493Z"}}}